St. Paul Lake Elmo, MN

8:58 AM CDT on March 23, 2017 (GMT -0500)
St. Paul Lake Elmo

Weather History for K21D - April, 2014

Change the Weather History Date:

Friday, April 25, 2014

  Actual Average (KSTP) Record (KSTP)
Temperature  
Mean Temperature 45 °F -  
Max Temperature 60 °F 61 °F 72 °F (2012)
Min Temperature 30 °F 39 °F 30 °F (2002)
Degree Days  
Heating Degree Days 20    
Moisture  
Dew Point 37 °F    
Average Humidity 77    
Maximum Humidity 100    
Minimum Humidity 48    
Precipitation  
Precipitation 0.00 in - - ()
Sea Level Pressure  
Sea Level Pressure 29.79 in    
Wind  
Wind Speed 4 mph (NW)    
Max Wind Speed 18 mph    
Max Gust Speed 28 mph    
Visibility 7 miles    
Events Fog    
Averages and records for this station are not official NWS values.
T = Trace of Precipitation, MM = Missing Value Source: NWS Daily Summary

Daily Weather History Graph

Daily Weather History Graph

Search for Another Location

Airport or City:

Trip Planner

Search our weather history database for the weather conditions in past years. The results will help you decide how hot, cold, wet, or windy it might be!

Date:

Astronomy

Apr. 25, 2014 Rise Set
Actual Time 6:09 AM CDT 8:09 PM CDT
Civil Twilight 5:38 AM CDT 8:41 PM CDT
Nautical Twilight 4:59 AM CDT 9:20 PM CDT
Astronomical Twilight 4:16 AM CDT 10:03 PM CDT
Moon 4:09 AM CDT (4/25) 4:22 PM CDT (4/25)
Length of Visible Light 15h 03m
Length of Day
13h 59m
Waning Crescent, 15% of the Moon is Illuminated
Apr 25
Waning Crescent
Apr 29
New
May 6
First Quarter
May 14
Full
May 21
Last Quarter

Hourly Weather History & Observations

Time (CDT) Temp. Windchill Dew Point Humidity Pressure Visibility Wind Dir Wind Speed Gust Speed Precip Events Conditions
12:11 AM 35.6 °F - 35.6 °F 100% 29.74 in 5.0 mi Calm Calm - N/A   Clear
12:31 AM 35.6 °F - 35.6 °F 100% 29.74 in 3.0 mi Calm Calm - N/A   Clear
12:51 AM 33.8 °F - 33.8 °F 100% 29.73 in 0.5 mi Calm Calm - N/A Fog Fog
1:11 AM 33.8 °F - 33.8 °F 100% 29.73 in 0.2 mi Calm Calm - N/A Fog Fog
1:31 AM 33.8 °F - 33.8 °F 100% 29.72 in 0.2 mi Calm Calm - N/A Fog Fog
1:51 AM 32.0 °F - 32.0 °F 100% 29.72 in 0.5 mi Calm Calm - N/A Fog Fog
2:10 AM 32.0 °F - 32.0 °F 100% 29.72 in 0.2 mi Calm Calm - N/A Fog Fog
2:31 AM 32.0 °F - 32.0 °F 100% 29.72 in 0.2 mi Calm Calm - N/A Fog Light Freezing Fog
2:51 AM 32.0 °F - 32.0 °F 100% 29.72 in 0.2 mi Calm Calm - N/A Fog Fog
3:10 AM 32.0 °F - 32.0 °F 100% 29.72 in 0.2 mi Calm Calm - N/A Fog Fog
3:31 AM 32.0 °F 28.7 °F 32.0 °F 100% 29.72 in 1.5 mi South 3.5 mph - N/A   Overcast
3:51 AM 30.2 °F - 30.2 °F 100% 29.73 in 0.5 mi Calm Calm - N/A Fog Light Freezing Fog
4:11 AM 32.0 °F - 32.0 °F 100% 29.72 in 0.2 mi Calm Calm - N/A Fog Fog
4:31 AM 32.0 °F - 32.0 °F 100% 29.72 in 0.2 mi Calm Calm - N/A Fog Light Freezing Fog
4:51 AM 32.0 °F - 32.0 °F 100% 29.72 in 0.2 mi Calm Calm - N/A Fog Light Freezing Fog
5:11 AM 30.2 °F - 30.2 °F 100% 29.72 in 0.2 mi Calm Calm - N/A Fog Light Freezing Fog
5:31 AM 30.2 °F - 30.2 °F 100% 29.71 in 0.2 mi Calm Calm - N/A Fog Light Freezing Fog
5:51 AM 30.2 °F 26.7 °F 30.2 °F 100% 29.71 in 0.2 mi South 3.5 mph - N/A Fog Light Freezing Fog
6:11 AM 32.0 °F - 32.0 °F 100% 29.72 in 0.2 mi Calm Calm - N/A Fog Light Freezing Fog
6:31 AM 32.0 °F - 32.0 °F 100% 29.72 in 0.2 mi Calm Calm - N/A Fog Light Freezing Fog
6:51 AM 32.0 °F - 32.0 °F 100% 29.73 in 0.2 mi Calm Calm - N/A Fog Fog
7:11 AM 32.0 °F - 32.0 °F 100% 29.74 in 0.2 mi Calm Calm - N/A Fog Fog
7:31 AM 32.0 °F - 32.0 °F 100% 29.74 in 0.2 mi Calm Calm - N/A Fog Fog
7:51 AM 33.8 °F - 33.8 °F 100% 29.75 in 0.2 mi Calm Calm - N/A Fog Fog
8:11 AM 39.2 °F - 39.2 °F 100% 29.75 in 2.5 mi Calm Calm - N/A   Mostly Cloudy
8:30 AM 42.8 °F 37.5 °F 42.8 °F 100% 29.75 in 10.0 mi WNW 9.2 mph - N/A   Clear
8:51 AM 44.6 °F 39.2 °F 44.6 °F 100% 29.76 in 10.0 mi NW 10.4 mph - N/A   Clear
9:11 AM 44.6 °F 38.4 °F 42.8 °F 93% 29.77 in 10.0 mi WNW 12.7 mph 16.1 mph N/A   Scattered Clouds
9:30 AM 46.4 °F 41.9 °F 42.8 °F 87% 29.77 in 10.0 mi NW 9.2 mph - N/A   Clear
9:51 AM 46.4 °F 41.1 °F 42.8 °F 87% 29.79 in 10.0 mi NNW 11.5 mph - N/A   Scattered Clouds
10:10 AM 46.4 °F 41.1 °F 41.0 °F 81% 29.79 in 10.0 mi NW 11.5 mph 18.4 mph N/A   Mostly Cloudy
10:31 AM 46.4 °F 40.7 °F 41.0 °F 81% 29.80 in 10.0 mi NNW 12.7 mph 17.3 mph N/A   Overcast
10:51 AM 46.4 °F 40.7 °F 41.0 °F 81% 29.81 in 10.0 mi NW 12.7 mph 17.3 mph N/A   Overcast
11:10 AM 46.4 °F 40.7 °F 41.0 °F 81% 29.82 in 10.0 mi WNW 12.7 mph 16.1 mph N/A   Overcast
11:31 AM 48.2 °F - 41.0 °F 76% 29.81 in 10.0 mi WNW 9.2 mph 17.3 mph N/A   Mostly Cloudy
11:51 AM 50.0 °F - 41.0 °F 71% 29.82 in 10.0 mi NW 9.2 mph - N/A   Scattered Clouds
12:11 PM 50.0 °F - 41.0 °F 71% 29.81 in 10.0 mi West 10.4 mph - N/A   Scattered Clouds
12:31 PM 51.8 °F - 41.0 °F 67% 29.81 in 10.0 mi WNW 8.1 mph - N/A   Scattered Clouds
12:50 PM 53.6 °F - 41.0 °F 62% 29.81 in 10.0 mi NW 10.4 mph - N/A   Scattered Clouds
1:11 PM 53.6 °F - 41.0 °F 62% 29.81 in 10.0 mi West 10.4 mph 16.1 mph N/A   Scattered Clouds
1:31 PM 55.4 °F - 41.0 °F 58% 29.81 in 10.0 mi West 8.1 mph - N/A   Clear
1:50 PM 55.4 °F - 41.0 °F 58% 29.81 in 10.0 mi WNW 11.5 mph - N/A   Scattered Clouds
2:11 PM 57.2 °F - 41.0 °F 55% 29.81 in 10.0 mi West 9.2 mph 16.1 mph N/A   Scattered Clouds
2:31 PM 59.0 °F - 41.0 °F 51% 29.81 in 10.0 mi WNW 11.5 mph 19.6 mph N/A   Mostly Cloudy
2:51 PM 59.0 °F - 41.0 °F 51% 29.80 in 10.0 mi WNW 17.3 mph 20.7 mph N/A   Scattered Clouds
3:11 PM 60.8 °F - 41.0 °F 48% 29.80 in 10.0 mi West 15.0 mph 25.3 mph N/A   Scattered Clouds
3:31 PM 60.8 °F - 41.0 °F 48% 29.80 in 10.0 mi West 18.4 mph 23.0 mph N/A   Mostly Cloudy
3:51 PM 59.0 °F - 41.0 °F 51% 29.80 in 10.0 mi West 11.5 mph 20.7 mph N/A   Mostly Cloudy
4:11 PM 60.8 °F - 41.0 °F 48% 29.79 in 10.0 mi West 18.4 mph 27.6 mph N/A   Mostly Cloudy
4:30 PM 60.8 °F - 41.0 °F 48% 29.79 in 10.0 mi NW 11.5 mph 23.0 mph N/A   Overcast
4:51 PM 59.0 °F - 41.0 °F 51% 29.80 in 10.0 mi NW 10.4 mph - N/A   Overcast
5:11 PM 60.8 °F - 41.0 °F 48% 29.80 in 10.0 mi NW 11.5 mph 19.6 mph N/A   Scattered Clouds
5:31 PM 60.8 °F - 41.0 °F 48% 29.80 in 10.0 mi NW 11.5 mph 20.7 mph N/A   Clear
5:51 PM 60.8 °F - 41.0 °F 48% 29.80 in 10.0 mi North 10.4 mph 18.4 mph N/A   Scattered Clouds
6:11 PM 59.0 °F - 41.0 °F 51% 29.81 in 10.0 mi North 9.2 mph - N/A   Scattered Clouds
6:31 PM 59.0 °F - 41.0 °F 51% 29.82 in 10.0 mi NNW 8.1 mph 16.1 mph N/A   Clear
6:51 PM 57.2 °F - 41.0 °F 55% 29.82 in 10.0 mi North 10.4 mph - N/A   Clear
7:11 PM 55.4 °F - 41.0 °F 58% 29.83 in 10.0 mi North 9.2 mph - N/A   Clear
7:31 PM 53.6 °F - 41.0 °F 62% 29.84 in 10.0 mi North 4.6 mph - N/A   Clear
7:51 PM 53.6 °F - 41.0 °F 62% 29.84 in 10.0 mi NNE 6.9 mph - N/A   Scattered Clouds
8:11 PM 51.8 °F - 41.0 °F 67% 29.85 in 10.0 mi North 4.6 mph - N/A   Scattered Clouds
8:31 PM 51.8 °F - 39.2 °F 62% 29.86 in 10.0 mi North 8.1 mph - N/A   Clear
8:51 PM 50.0 °F - 37.4 °F 62% 29.87 in 10.0 mi NNE 6.9 mph - N/A   Clear
9:10 PM 50.0 °F - 37.4 °F 62% 29.88 in 10.0 mi North 9.2 mph - N/A   Clear
9:31 PM 46.4 °F 44.3 °F 35.6 °F 66% 29.89 in 10.0 mi North 4.6 mph - N/A   Clear
9:51 PM 46.4 °F 41.5 °F 35.6 °F 66% 29.90 in 10.0 mi NNE 10.4 mph - N/A   Clear
10:10 PM 46.4 °F 41.9 °F 32.0 °F 57% 29.91 in 10.0 mi NNE 9.2 mph - N/A   Clear
10:31 PM 44.6 °F 39.7 °F 32.0 °F 61% 29.91 in 10.0 mi NNE 9.2 mph 16.1 mph N/A   Clear
10:51 PM 44.6 °F 40.2 °F 32.0 °F 61% 29.92 in 10.0 mi NNE 8.1 mph - N/A   Clear
11:10 PM 42.8 °F 39.3 °F 32.0 °F 66% 29.92 in 10.0 mi NNE 5.8 mph - N/A   Clear
11:51 PM 41.0 °F 37.1 °F 32.0 °F 70% 29.94 in 10.0 mi NNE 5.8 mph - N/A   Clear